Location: Bittelbronn
(48.4454°N, 8.5870°E)
Time: 15:32:54
(UTC+00:00)

Cosmos 1953 - Pass Details

Date: 11 August 2024
Orbit: 504 x 523 km, 82.5° (Epoch: 18 September)

Event Time Altitude Azimuth Distance (km) Brightness Sun altitude
Exits shadow 02:56:43 - 172° (S) 2,508 5.4 -11.7°
Reaches altitude 10° 02:58:39 10° 166° (SSE) 1,728 4.6 -11.5°
Maximum altitude 03:02:15 44° 94° (E) 721 3.3 -11.0°
Drops below altitude 10° 03:05:56 10° 22° (NNE) 1,757 5.9 -10.5°
Sets 03:08:09 0° 16° (NNE) 2,655 6.7 -10.3°
